Regional Weather Roundup
Issued by NWS

Home | Current Version | Previous Version | Text Only | Print | Product List | Glossary On
Versions: 1 2 3 4 5 6 7 8 9 10 11 12 13 14 15 16 17 18 19 20 21 22 23 24 25 26 27 28 29 30 31 32 33 34 35 36 37 38 39 40 41 42 43 44 45 46 47 48 49 50
000
ASUS43 KLSX 280159
RWRMO

WEATHER SUMMARY FOR MISSOURI
NATIONAL WEATHER SERVICE SPRINGFIELD MO
900 PM CDT FRI MAR 27 2015

NOTE: "FAIR" INDICATES FEW OR NO CLOUDS BELOW 12,000 FEET WITH NO
       SIGNIFICANT WEATHER AND/OR OBSTRUCTIONS TO VISIBILITY.
       CURRENT SKY AND/OR WEATHER CONDITIONS ARE NOT AVAILABLE FOR
       CHILLICOTHE AND FARMINGTON.

MOZ001>031-035>038-043-044-053-054-280300-
...NORTHERN AND WESTERN MISSOURI...

CITY           SKY/WX    TMP DP  RH WIND       PRES   REMARKS
KANSAS CTY INT CLOUDY    39  20  46 CALM      30.15F
KANSAS C DTWN  CLOUDY    42  18  37 W6        30.17R
LEE`S SUMMIT   CLOUDY    41  18  39 NE6       30.17R
ST JOSEPH      CLOUDY    38  23  55 W3        30.16F
CHILLICOTHE      N/A     41  19  41 CALM      30.18R
KIRKSVILLE     CLOUDY    34  18  52 NE3       30.17R

$$
MOZ066>068-077>081-088>096-101>105-280300-
...SOUTHWEST MISSOURI...

CITY           SKY/WX    TMP DP  RH WIND       PRES   REMARKS
SPRINGFIELD    CLOUDY    41  23  48 NW6       30.16R
JOPLIN         CLOUDY    45  25  45 CALM      30.17R

$$
MOZ032>034-039>042-045>050-055>058-069>072-280300-
...CENTRAL MISSOURI...

CITY           SKY/WX    TMP DP  RH WIND       PRES   REMARKS
COLUMBIA       CLOUDY    38  24  57 CALM      30.17R
JEFFERSON CITY CLOUDY    40  20  44 CALM      30.18R
ROLLA          CLOUDY    36  23  59 CALM      30.15R
SEDALIA        CLOUDY    41  25  53 N3        30.18R
OSAGE BEACH    CLOUDY    39  19  45 CALM      30.17R

$$
MOZ051-052-059>065-280300-
...EAST CENTRAL MISSOURI...

CITY           SKY/WX    TMP DP  RH WIND       PRES   REMARKS
ST LOUIS INTL  PTCLDY    38  19  46 NE5       30.18R
SPIRIT OF STL  PTCLDY    32  25  75 CALM      30.17R
ST CHARLES     CLEAR     34  23  64 CALM      30.18R

$$
MOZ072>076-082>087-097>100-106>115-280300-
...SOUTH CENTRAL AND SOUTHEAST MISSOURI...

CITY           SKY/WX    TMP DP  RH WIND       PRES   REMARKS
CAPE GIRARDEAU CLEAR     34  23  64 NE5       30.18R WCI  30
FARMINGTON     MOCLDY    36  18  48 N5        30.19R
POPLAR BLUFF   PTCLDY    38  26  62 NE5       30.17R
WEST PLAINS    MOCLDY    40  19  43 CALM      30.15R

$$



USA.gov is the U.S. government's official web portal to all federal, state and local government web resources and services.